THOR ABLESTAR DEB, 48826

Orbit data source: Space-Track

THOR ABLESTAR DEB, 48826 is space debris in LEO originally from a launch on Thu, 29 Jun 1961 UTC launched from the Air Force Eastern Test Range (AFETR). Debris objects in space refer to the collection of defunct objects orbiting the Earth. Examples of debris include non-operational satellites, rocket bodies, and fragments generated from explosions, collisions, or faulty payload assembly.

Loading next visibility...
Identifier
48826, 1961-015NE
Orbit
LEO
Country
Flag of USUS
Related business
Manufacturer
Unknown
Mission
Spacecraft
Bus & Motor
Unknown
Mass
Unknown
Launch date (UTC)
1961-06-29 (65 years ago)
Launch vehicle
Unknown
Launch site
Air Force Eastern Test Range (AFETR)
Object type
Payload
Rocket body
Debris
Shape & HBR
Unknown shape, 0.1 m
Radar Cross Section
Small (<0.1 m²)

Expand to show TLE details & history
Last TLE update: 1 week ago

TLE from 1 week ago
0 THOR ABLESTAR DEB
1 48826U 61015NE  26093.02302007  .00001821  00000-0  68781-3 0  9990
2 48826  66.5970 200.5184 0044076  34.6110 139.0563 14.33051349643923
Epoch: 2026-04-03T00:33Z
TLE epoch observation values (Epoch: 2026-04-03T00:33:08.934Z)
Latitude
5.44011°
Longitude
178.51835°
Altitude
807.009 km
Speed
7.438 km/s
True Right ascension
01h 12m 40s
True Declination
5° 24' 29"
Sunlit
Object was in daylight at epoch
Visualization orbit readout
Latitude
Unknown
Longitude
Unknown
Altitude
Unknown
Speed
Unknown
Apparent Right ascension
Unknown
Apparent Declination
Unknown
Sunlit
N/A
Visualization observer readout
Local Sidereal Time
02:18:08
Azimuth
Unknown
Elevation
Unknown
Doppler factor
Unknown
Orbital elements
Apogee altitude
811.484 km
Perigee altitude
748.384 km
Semi-major axis
7,158.071 km
Eccentricity
0.00441
Inclination
66.597°
RAAN
200.5184°
Arg. of periapsis
34.611°
True anomaly
139.38591°
Mean anomaly
139.0563°
Eccentric anomaly
139.22124°
Mean motion
3.58384 °/min
Orbital period
100.45 mins
BSTAR
0.00068781
Loading maneuver chart data...
Computing Atmospheric mass density...

Documentation

Showing up to 5 results
|